Regional Weather Roundup
Issued by NWS

Home | Current Version | Previous Version | Text Only | Print | Product List | Glossary On
Versions: 1 2 3 4 5 6 7 8 9 10 11 12 13 14 15 16 17 18 19 20 21 22 23 24 25 26 27
000
ASUS44 KBMX 150510
RWRAL

ALABAMA REGIONAL WEATHER ROUNDUP
NATIONAL WEATHER SERVICE BIRMINGHAM AL
1100 PM CST THU DEC 14 2017

NOTE: "FAIR" INDICATES FEW OR NO CLOUDS BELOW 12,000 FEET
WITH NO SIGNIFICANT WEATHER AND/OR OBSTRUCTIONS TO VISIBILITY.

THE REMARK "TC" DENOTES TEMPERATURE IN DEGREES CELSIUS.

ALZ001>011-014-016>018-020-150600-
NORTH ALABAMA

CITY           SKY/WX    TMP DP  RH WIND       PRES   REMARKS
MUSCLE SHOALS  CLOUDY    34  24  67 E5        30.12S WCI  30
HUNTSVILLE     CLOUDY    35  26  69 N9        30.10R WCI  28
DECATUR        CLOUDY    32  27  81 N5        30.11R WCI  27
HALEYVILLE     FAIR      35  26  69 N6        30.10R WCI  30
GADSDEN        CLOUDY    43  34  70 N5        30.05R
$$

ALZ012-013-022-023-030>036-040>044-150600-
WEST CENTRAL ALABAMA

CITY           SKY/WX    TMP DP  RH WIND       PRES   REMARKS
TUSCALOOSA     CLOUDY    47  38  71 N7        30.05S
DEMOPOLIS        N/A     38  36  93 CALM      30.04F
$$

ALZ015-024>026-033>036-041>044-150600-
CENTRAL ALABAMA

CITY           SKY/WX    TMP DP  RH WIND       PRES   REMARKS
BIRMINGHAM     CLOUDY    45  33  63 N10       30.06R
MONTGOMERY     PTCLDY    42  37  82 CALM      30.03S
SHELBY CO ARPT CLOUDY    42  40  92 CALM      30.02F
MAXWELL AFB    CLOUDY    40  40  98 CALM        N/A
GREENVILLE     FAIR      43  39  86 CALM      30.01F
SELMA          FAIR      37  37 100 SE3       30.03F
PRATTVILLE     FAIR      39  38  97 CALM      30.03S
BESSEMER       FAIR      44  36  73 N6        30.03F
TALLADEGA      FAIR      40  37  89 CALM      30.04S
PELL CITY      CLEAR     39  39 100 CALM      30.04S
MARION         FAIR      38  38  99 CALM      30.02F
SYLACAUGA      FAIR      41  41 100 CALM      30.03F
$$

ALZ019-021-028-029-037-038-045>048-150600-
EAST CENTRAL ALABAMA

CITY           SKY/WX    TMP DP  RH WIND       PRES   REMARKS
ANNISTON       PTCLDY    41  37  86 CALM      30.03S
ALEXANDER CITY CLOUDY    37  37 100 CALM      30.02S
AUBURN         PTCLDY    43  38  82 N3        30.02S
$$

ALZ051>064-150600-
SOUTHWEST ALABAMA

CITY           SKY/WX    TMP DP  RH WIND       PRES   REMARKS
MOBILE         CLOUDY    47  44  90 CALM      30.04S
BROOKLEY FIELD MOCLDY    48  46  93 CALM      30.05F
EVERGREEN      PTCLDY    43  41  93 CALM      30.04R FOG
$$

ALZ049-050-065>069-150600-
SOUTHEAST ALABAMA

CITY           SKY/WX    TMP DP  RH WIND       PRES   REMARKS
DOTHAN         CLOUDY    46  41  82 W3        30.06R
OZARK          CLOUDY    44  41  88 CALM      30.02S
TROY           CLOUDY    43  42  97 CALM      30.03S
EUFAULA        FAIR      43  42  97 CALM      30.02S
$$




USA.gov is the U.S. government's official web portal to all federal, state and local government web resources and services.